Rogers, AR

10:02 PM CDT on March 27, 2017 (GMT -0500)
Rogers Municipal-Carter

Weather History for KROG - October, 2012

Change the Weather History Date:

Thursday, October 4, 2012

  Actual Average Record
Temperature  
Mean Temperature 69 °F -  
Max Temperature 81 °F 70 °F 86 °F (2000)
Min Temperature 57 °F 50 °F 39 °F (1999)
Cooling Degree Days 4    
Growing Degree Days 19 (Base 50)    
Moisture  
Dew Point 56 °F    
Average Humidity 67    
Maximum Humidity 87    
Minimum Humidity 42    
Precipitation  
Precipitation 0.00 in - - ()
Sea Level Pressure  
Sea Level Pressure 30.12 in    
Wind  
Wind Speed 8 mph (SSE)    
Max Wind Speed 17 mph    
Max Gust Speed 20 mph    
Visibility 10 miles    
Events      
Averages and records for this station are not official NWS values.
T = Trace of Precipitation, MM = Missing Value Source: NWS Daily Summary

Daily Weather History Graph

Daily Weather History Graph

Search for Another Location

Airport or City:

Trip Planner

Search our weather history database for the weather conditions in past years. The results will help you decide how hot, cold, wet, or windy it might be!

Date:

Astronomy

Oct. 04, 2012 Rise Set
Actual Time 7:14 AM CDT 6:54 PM CDT
Civil Twilight 6:48 AM CDT 7:20 PM CDT
Nautical Twilight 6:18 AM CDT 7:50 PM CDT
Astronomical Twilight 5:48 AM CDT 8:20 PM CDT
Moon 9:39 PM CDT (10/4) 11:24 AM CDT (10/4)
Length of Visible Light 12h 31m
Length of Day
11h 40m
Waning Gibbous, 82% of the Moon is Illuminated
Oct 4
Waning Gibbous
Oct 8
Last Quarter
Oct 15
New
Oct 21
First Quarter
Oct 29
Full

Hourly Weather History & Observations

Time (CDT) Temp. Heat Index Dew Point Humidity Pressure Visibility Wind Dir Wind Speed Gust Speed Precip Events Conditions
12:57 AM 61.0 °F - 54.0 °F 78% 30.05 in 10.0 mi SSE 9.2 mph - N/A   Clear
1:57 AM 61.0 °F - 53.1 °F 75% 30.06 in 10.0 mi SE 5.8 mph - N/A   Clear
2:57 AM 60.1 °F - 53.1 °F 78% 30.07 in 10.0 mi SE 6.9 mph - N/A   Clear
3:57 AM 59.0 °F - 53.1 °F 81% 30.08 in 10.0 mi SE 5.8 mph - N/A   Clear
4:57 AM 59.0 °F - 53.1 °F 81% 30.10 in 10.0 mi SE 5.8 mph - N/A   Clear
5:57 AM 57.9 °F - 54.0 °F 87% 30.13 in 10.0 mi ESE 4.6 mph - N/A   Clear
6:57 AM 57.9 °F - 54.0 °F 87% 30.15 in 10.0 mi SE 6.9 mph - N/A   Clear
7:57 AM 59.0 °F - 55.0 °F 87% 30.17 in 10.0 mi SE 4.6 mph - N/A   Clear
8:57 AM 63.0 °F - 55.9 °F 78% 30.18 in 10.0 mi SSE 9.2 mph - N/A   Clear
9:57 AM 70.0 °F - 57.0 °F 63% 30.17 in 10.0 mi South 11.5 mph - N/A   Clear
10:57 AM 75.0 °F - 55.9 °F 51% 30.16 in 10.0 mi South 16.1 mph - N/A   Clear
11:57 AM 78.1 °F - 55.9 °F 46% 30.16 in 10.0 mi SSW 13.8 mph - N/A   Clear
12:57 PM 79.0 °F - 55.9 °F 45% 30.15 in 10.0 mi South 17.3 mph - N/A   Clear
1:57 PM 80.1 °F 80.2 °F 55.9 °F 43% 30.12 in 10.0 mi South 16.1 mph 19.6 mph N/A   Clear
2:57 PM 81.0 °F 81.0 °F 57.0 °F 44% 30.11 in 10.0 mi SW 9.2 mph - N/A   Clear
3:57 PM 81.0 °F 81.0 °F 57.0 °F 44% 30.10 in 10.0 mi SW 12.7 mph - N/A   Clear
4:57 PM 80.1 °F 80.1 °F 55.0 °F 42% 30.09 in 10.0 mi WSW 11.5 mph - N/A   Clear
6:57 PM 75.0 °F - 55.9 °F 51% 30.10 in 10.0 mi SSW 6.9 mph - N/A   Clear
8:57 PM 68.0 °F - 59.0 °F 73% 30.14 in 10.0 mi North 8.1 mph - N/A   Overcast
9:57 PM 66.0 °F - 57.9 °F 75% 30.14 in 10.0 mi NNE 5.8 mph - N/A   Overcast
10:57 PM 64.9 °F - 57.9 °F 78% 30.14 in 10.0 mi North 4.6 mph - N/A   Overcast
11:57 PM 64.0 °F - 57.9 °F 80% 30.11 in 10.0 mi ENE 3.5 mph - N/A   Overcast